Regional Weather Roundup
Issued by NWS Wakefield, VA

Home | Current Version | Previous Version | Text Only | Print | Product List | Glossary Off
Versions: 1 2 3 4 5 6 7 8 9 10 11 12 13 14 15 16 17 18 19 20 21 22 23 24 25 26 27 28 29 30 31 32 33 34 35 36 37 38 39 40 41 42 43 44 45 46 47 48 49 50

000
ASUS41 KAKQ 290110
RWRAKQ

REGIONAL WEATHER ROUNDUP
NATIONAL WEATHER SERVICE WAKEFIELD VA
900 PM EDT MON JUL 28 2014

Note: "fair" indicates few or no clouds below 12,000 feet with no
significant weather and/or obstructions to visibility. * = Denotes
station may not report precipitation (e.g., rain,snow,etc.),
thunder or fog.

VAZ042-051-052>054-056-290200-
NORTHERN VIRGINIA

CITY           SKY/WX    TMP DP  RH WIND       PRES   REMARKS
WASH NATIONAL  PTCLDY    77  57  50 NW21G26   29.79R
DULLES         MOCLDY    72  57  59 NW21G29   29.80R
FORT BELVOIR   CLEAR     75  59  57 NW12      29.79R
QUANTICO       CLEAR     75  57  53 NW10      29.81R
FREDERICKSBRG* CLEAR     76  57  51 NW8G22    29.80R
STAFFORD*      CLEAR     73  57  56 W9        29.85R
WARRENTON      PTCLDY    71  64  79 NW7       29.82R
CULPEPER*      CLEAR    N/A N/A N/A CALM      29.83R
MANASSAS*      PTCLDY    73  61  64 NW8       29.81R
LEESBURG*      CLOUDY    72  63  73 NW15G23   29.82R
WINCHESTER     CLOUDY    68  57  68 NW14      29.85R
$$

VAZ048-049-060>072-079>083-290200-
CENTRAL AND SOUTH CENTRAL VIRGINIA...AND NORTH CENTRAL NORTH CAROLINA

CITY           SKY/WX    TMP DP  RH WIND       PRES   REMARKS
RICHMOND       PTCLDY    80  55  42 NW9       29.80R
CHESTERFIELD*  CLEAR     73  54  49 CALM      29.83R
HANOVER        PTCLDY    75  57  53 NW3       29.82R
TAPPAHANNOCK*  PTCLDY    76  52  42 W6        29.80R
CHARLOTTSVILLE PTCLDY    72  56  57 NW6       29.84R
ORANGE*        CLEAR     72  55  56 W9        29.85R
LOUISA*        MOCLDY    73  57  56 W6        29.83R
FARMVILLE*     PTCLDY    75  54  46 CALM      29.83R
SOUTH HILL*    CLEAR     75  61  60 W3        29.89R
ROANOKE RAPIDS NOT AVBL
RALEIGH        MOCLDY    80  57  45 CALM      29.85R
$$

VAZ088>098-290200-
SOUTHEAST VIRGINIA

CITY           SKY/WX    TMP DP  RH WIND       PRES   REMARKS
NORFOLK        CLEAR     81  60  48 W5        29.78R
VIRGINIA BEACH PTCLDY    79  60  52 W9        29.78R
NORFOLK NAVAL  PTCLDY    81  62  52 W6        29.80R
WEST POINT*    MOCLDY    78  59  51 W5        29.80R
NEWPORT NEWS   CLEAR     81  60  48 W7        29.79R
LANGLEY AFB    PTCLDY    77  62  59 W8        29.78R
FORT EUSTIS    CLEAR     79  60  52 W6        29.78R
WILLIAMSBURG*  PTCLDY    79  63  57 NW6       29.80R
FRANKLIN*      CLEAR     73  59  60 W3        29.81R
WAKEFIELD      CLEAR     76  59  55 CALM      29.81R
$$

VAZ020-022-025-037-045-290200-
WESTERN AND SOUTHWEST VIRGINIA

CITY           SKY/WX    TMP DP  RH WIND       PRES   REMARKS
STAUNTON*      CLOUDY    70  54  56 NW8       29.91R
HOT SPRINGS VA CLOUDY    56  51  81 W12G17    30.00R
LYNCHBURG      CLEAR     70  56  61 CALM      29.89R
DANVILLE       CLEAR     75  56  51 N9        29.87R
MARTINSVILLE   CLOUDY    74  56  52 N8        29.93R
ROANOKE        MOCLDY    70  54  56 NW8       29.93R
BLACKSBURG     MOCLDY    66  57  72 NW9       29.99R
DUBLIN*        MOCLDY    67  56  69 NW3       29.98R
MARION*        MOCLDY   N/A N/A N/A NW7       30.02R
HILLSVILLE*    MOCLDY    65  54  68 NW10G17   29.98R
RICHLANDS*     CLOUDY    65  58  76 NW6       30.01S
WISE*          PTCLDY    63  54  72 W3        30.04R
ABINGDON*      CLEAR     68  57  68 CALM      30.00R
$$

MDZ021>025-VAZ099-100-290200-
SOUTHERN MARYLAND AND THE DELMARVA PENINSULA

CITY           SKY/WX    TMP DP  RH WIND       PRES   REMARKS
PATUXENT RIVER PTCLDY    77  56  48 W14       29.76R
BAY BRIDGE APT   N/A     77  57  50 W13G21    29.74R
LEONARDTOWN    CLOUDY    75  55  50 W8        29.79R
DOVER          CLEAR     76  60  58 W10       29.71R
GEORGETOWN     PTCLDY    77  59  53 S7        29.74R
EASTON         PTCLDY    79  59  50 NW12G17   29.78R
CAMBRIDGE      CLEAR     77  55  47 W7        29.74R
SALISBURY      NOT AVBL
OCEAN CITY     MOCLDY    75  60  59 W5        29.74R
WALLOPS ISLAND PTCLDY    80  61  52 W6        29.75R
ACCOMACK*        N/A     77  59  53 W5        29.76R
$$

NCZ012>017-030>032-290200-
EASTERN NORTH CAROLINA

CITY           SKY/WX    TMP DP  RH WIND       PRES   REMARKS
ELIZABETH CITY CLEAR     75  63  66 W8        29.80R
AHOSKIE*       PTCLDY    73  65  75 CALM      29.83R
EDENTON*       CLEAR     79  65  62 NW3       29.81R
CURRITUCK*     CLEAR     78  60  54 SW3       29.81R
KILL DEVIL HLS CLEAR     82  66  58 W8        29.79R
MANTEO         NOT AVBL
CAPE HATTERAS  CLOUDY    79  73  82 W8        29.80R
GOLDSBORO      PTCLDY    82  67  61 N3        29.80R
WASHINGTON     CLEAR     76  69  78 CALM      29.82R
GREENVILLE     PTCLDY    73  70  88 CALM      29.85S
NEW BERN       CLEAR     75  72  90 N5        29.82S
WILMINGTON     PTCLDY    73  71  93 SE5       29.81S
$$

VAZ048-290200-
ELSEWHERE

CITY           SKY/WX    TMP DP  RH WIND       PRES   REMARKS
HARRISBURG PA  LGT RAIN  68  63  84 W13       29.76R
BALTIMORE      MOCLDY    72  60  66 W16G22    29.76R
ANNAPOLIS      PTCLDY    75  59  57 W13G23    29.75R
ANDREWS AFB    PTCLDY    75  59  58 NW15G26   29.78R
WILMINGTON DE  CLOUDY    71  59  65 NW10      29.73R
PHILADELPHIA   MOCLDY    74  58  57 NW14      29.71R
WILDWOOD NJ*   PTCLDY    75  61  60 W7        29.73R
ATLANTIC CITY  CLEAR     76  58  53 SW8       29.69R
HENDERSON NC   CLEAR     74  57  55 NW3       29.86R
GREENSBORO     PTCLDY    77  56  48 NW5       29.88R
ROCKY MOUNT    CLEAR     73  65  75 CALM      29.83R
FAYETTEVILLE   CLOUDY    85  61  44 N9        29.82R
CHARLOTTE      MOCLDY    77  57  50 N6        29.89R
$$

VAZ100-290200-
MARINE

STATION/POSITION TIME  TEMP    WIND        PRES    WAVE   SWELL
                       AIR SEA DIR/SP/G            HT/PER HT/PER
                 (UTC) (F)     (DEG/KT/KT) (MB)    (FT/S) (FT/S)
44066 TX TWR #4  0100   77 75  250/ 19/ 25 1003.6R   5/ 7   2/ 9
CAPE MAY NJ      0100   77 79  280/ 10/ 13 1005.7R
LEWES DE         0100   78 73  260/  5/  6 1006.0R
15NM E FENWICK I 0100   77 74              1006.6R   4/ 7
OCEAN-CITY-INLET 0100   77 71  280/  5/  6 1006.4R
WACHAPREAGUE VA  0100   80 82  270/  6/  9 1007.6R
THOMAS POINT MD  0100   76 79  290/ 21/ 24 1007.7R
GOOSES REEF MD   0100   79     290/ 16/ 19 1007.6R
COVE POINT MD    0100   77     320/ 13/ 16 1007.3R
SOLOMONS ISLAND  0100      81                N/A
BISHOPS HEAD MD  0100   80 80  290/ 16/ 20 1007.0R
PINEY POINT MD   0100          320/ 28/ 31   N/A
POTOMAC MD       0100   80     290/ 16/ 21 1006.7R
CAMBRIDGE MD     0100   79 80  280/ 10/ 14 1006.8R
LEWISETTA VA     0100   79 80  310/  8/ 10 1007.8R
RAPPAHANNOCK LGT 0100          270/ 15/ 17 1008.4R
STINGRAY PT      0100   81     280/ 12/ 14 1008.6S
YORK RVR RNG VA  0100   81     300/ 11/ 12 1007.7R
YORKTOWN VA      0100   80 80  260/  8/ 10 1008.2R
JAMESTOWN VA     0100   79     300/ 10/ 14   N/A
DOMINION TERM VA 0100   81     270/  9/ 11 1008.6R
KIPTOPEKE VA     0100      83  290/ 14/ 17   N/A
CHES BAY BRIDGE  0100   81 79  250/ 12/ 14 1007.8R
CAPE HENRY VA    0100   82     260/ 10/ 13 1007.1R
WILLOUBY STN VA  0100          270/ 12/ 13 1007.8R
S CRANEY ISL VA  0100          250/  5/  8 1008.8R
CAPE HENRY BUOY  0100      78                N/A     3/ 8
1ST LANDING BUOY 0100   81     280/ 12/ 16 1008.0R
CAPE CHARLES BUO 0100      76                N/A     3/ 4
OFFSHORE WE BUOY 0100      78                N/A     4/ 4
64NM E OF VA BCH 0100   81 78  260/ 12/ 14 1007.7R   4/ 6   3/ 6
DUCK PIER NC     0100   82 60  270/  7/  9 1008.3R
44056 DUCK FRF   0100                        N/A     1/ 8
OREGON INLET NC  0100   82 83  280/  6/  8 1008.9R
HATTERAS NC      0100   79 82  240/  7/ 10 1009.6F
DIAMOND SHLS NC  0100          VRB 12/ 16  1008.7S   4/ 8   3/ 8
CAPE LOOKOUT NC  0000   72     300/  3/  4 1009.4F
$$


USA.gov is the U.S. government's official web portal to all federal, state and local government web resources and services.